Location: Regensburg
(48.4565°N, 10.3217°E)
Time: 23:09:46
(UTC+02:00)

ELECTRON R/B - Visible Passes

Search period start: 24 May 2018 00:00
Search period end: 03 June 2018 00:00
Orbit: 285 x 479 km, 82.9° (Epoch: 23 May)

Date Brightness Start Highest point End Pass type
(mag) Time Alt. Az. Time Alt. Az. Time Alt. Az.
24 May 4.6 21:46:24 10° NNW 21:48:49 70° W 21:51:16 10° S visible
25 May 7.4 22:23:31 10° WNW 22:24:49 13° W 22:26:08 10° WSW visible
27 May 7.3 22:02:29 10° NW 22:04:05 16° W 22:05:43 10° SW visible
